sat.trackr.live / text

‹ back to catalog

STARLINK-32505

NORAD 63085 · 2025-037J

PAYLOAD ACTIVE UNKNOWN

§ Identity

Operator
Country
US
Launch date
2025-02-23
Launch site
AFWTR
Launch vehicle
Mass (kg)
RCS (m²)

Purposes: comms

External: N2YO · Heavens-Above · Gunter

§ Orbital elements

Epoch: 2026-05-25T02:25:03.971424Z

Period
96.11 min
Inclination
69.9997°
Eccentricity
0.0004373
Mean motion
14.98338566 rev/d
Perigee alt
569.0 km
Apogee alt
575.1 km
Semi-major
6,950.2 km
B*
9.5894e-5
RAAN
161.9567°
Arg perigee
267.8333°
Mean anomaly
92.2325°
Rev number
6,999

§ Raw data

STARLINK-325051 63085U 25037J   26145.10074041  .00001052  00000+0  95894-4 0  99902 63085  69.9997 161.9567 0004373 267.8333  92.2325 14.98338566 69996

JSON: /api/v1/satellites/63085 · /tle

For live sub-satellite position, see the globe view (requires WebGL).

§ Visibility from observer

Set your observer location to see the next 7 days of passes ≥ 10°. The values pass through the URL so the page stays shareable.

No JS? Fill the form by hand. The geolocation button needs JavaScript.